sat.trackr.live / text

‹ back to catalog

ONEWEB-0093

NORAD 45444 · 2020-020W

PAYLOAD ACTIVE UNKNOWN

§ Identity

Operator
Country
UK
Launch date
2020-03-21
Launch site
TYMSC
Launch vehicle
Mass (kg)
RCS (m²)

Purposes: comms

External: N2YO · Heavens-Above · Gunter

§ Orbital elements

Epoch: 2026-05-25T02:41:17.142144Z

Period
109.80 min
Inclination
87.8918°
Eccentricity
0.0002168
Mean motion
13.11418477 rev/d
Perigee alt
1,216.0 km
Apogee alt
1,219.3 km
Semi-major
7,595.8 km
B*
1.2919e-3
RAAN
25.6493°
Arg perigee
78.1559°
Mean anomaly
281.9812°
Rev number
29,965

§ Raw data

ONEWEB-00931 45444U 20020W   26145.11200396  .00000471  00000+0  12919-2 0  99902 45444  87.8918  25.6493 0002168  78.1559 281.9812 13.11418477299654

JSON: /api/v1/satellites/45444 · /tle

For live sub-satellite position, see the globe view (requires WebGL).

§ Visibility from observer

Set your observer location to see the next 7 days of passes ≥ 10°. The values pass through the URL so the page stays shareable.

No JS? Fill the form by hand. The geolocation button needs JavaScript.